Regional Weather Roundup
Issued by NWS

Home | Current Version | Previous Version | Text Only | Print | Product List | Glossary On
Versions: 1 2 3 4 5 6 7 8 9 10 11 12 13 14 15 16 17 18 19 20 21 22 23 24 25 26 27
000
ASUS44 KJAN 221010
RWRMS

MISSISSIPPI HOURLY WEATHER ROUNDUP
NATIONAL WEATHER SERVICE JACKSON MS
500 AM CDT FRI SEP 22 2017

NOTE: "FAIR: INDICATES FEW OR NO CLOUDS BELOW 12,000 FEET WITH NO
SIGNIFICANT WEATHER AND/OR OBSTRUCTIONS TO VISIBILITY.

MSZ001>002-007>008-010>013-018>021-025>028-034>036-221100-
NORTHWEST MISSISSIPPI

CITY           SKY/WX    TMP DP  RH WIND       PRES   REMARKS
BATESVILLE     FAIR      68  67  95 CALM      30.01S FOG
CLARKSDALE       N/A     70  70 100 CALM      30.00R
CLEVELAND      FAIR      72  72 100 CALM      29.99R
GREENWOOD      CLEAR     70  69  97 CALM      29.99R
GREENVILLE     CLEAR     70  67  90 CALM      29.98S
OXFORD         FAIR      70  70 100 CALM      30.02S
TUNICA           N/A     68  66  94 CALM      30.00S FOG
WINONA         FAIR      67  67 100 CALM      30.00R FOG
$$

MSZ003>006-009-014>017-022>024-029>033-037>039-221100-
NORTHEAST MISSISSIPPI

CITY           SKY/WX    TMP DP  RH WIND       PRES   REMARKS
COLUMBUS AFB   CLEAR     71  71 100 NE3       30.00R
STARKVILLE     FAIR      68  68 100 CALM      30.02R
TUPELO         CLEAR     72  69  90 N5        30.01S
$$

MSZ040-058-221100-
CENTRAL MISSISSIPPI

CITY           SKY/WX    TMP DP  RH WIND       PRES   REMARKS
JACKSON INTL   CLEAR     69  69 100 CALM      29.99R FOG
JACKSON HAWKNS CLEAR     71  71 100 CALM      30.00R FOG
MADISON          N/A     68  68 100 CALM      30.00R
MERIDIAN KEY   CLEAR     70  69  97 CALM      29.99S
MERIDIAN NAS   CLEAR     70  68  93 CALM      30.00R
RAYMOND        FOG       70  68  94 CALM      29.99R VSB 1/4
VICKSBURG VKS  SUNNY     70  70 100 CALM      30.00R FOG
$$

MSZ059>079-221100-
SOUTH MISSISSIPPI

CITY           SKY/WX    TMP DP  RH WIND       PRES   REMARKS
COLUMBIA       FOG       66 N/A N/A CALM      30.02S VSB 3/4
HATTIESBURG    CLEAR     70  70 100 CALM      29.99R
LAUREL         FAIR      69  69 100 CALM      29.99R
MCCOMB         CLEAR     69  67  93 CALM      29.99R
NATCHEZ        CLEAR     70  69  97 CALM      29.99S
PINE BELT      CLEAR     68  68 100 CALM      29.99S FOG
$$

MSZ080>082-221100-
COASTAL MISSISSIPPI

CITY           SKY/WX    TMP DP  RH WIND       PRES   REMARKS
BILOXI         CLEAR     74  69  86 N5        29.95S
PASCAGOULA     CLEAR     68  66  93 CALM      29.96S FOG
GULFPORT       CLEAR     73  69  87 CALM      29.95S
$$

LAZ007>009-015>016-023>026-221100-
NORTHEAST LOUISIANA

CITY           SKY/WX    TMP DP  RH WIND       PRES   REMARKS
BASTROP        FOG       69  69  98 CALM      29.99S VSB 3/4
TALLULAH/VBURG CLEAR     69  69 100 CALM      29.98S FOG
VIDALIA          N/A    N/A N/A N/A MISG      29.97S
$$




USA.gov is the U.S. government's official web portal to all federal, state and local government web resources and services.